Time,TemperatureF,DewpointF,PressureIn,WindDirection,WindDirectionDegrees,WindSpeedMPH,WindSpeedGustMPH,Humidity,HourlyPrecipIn,Conditions,Clouds,dailyrainin,SoftwareType,DateUTC
2013-02-26 00:02:00,11.0,10.0,-100.00,WNW,290,0.0,1.0,94,0.00,,,0.00,,2013-02-26 06:02:00,
2013-02-26 00:11:00,12.0,10.0,-100.00,NW,315,1.0,2.0,94,0.00,,,0.00,,2013-02-26 06:11:00,
2013-02-26 00:21:00,13.0,12.0,-100.00,NW,310,2.0,4.0,94,0.00,,,0.00,,2013-02-26 06:21:00,
2013-02-26 00:31:00,10.0,9.0,-100.00,NW,310,0.0,2.0,94,0.00,,,0.00,,2013-02-26 06:31:00,
2013-02-26 00:41:00,8.0,7.0,-100.00,SE,145,1.0,2.0,93,0.00,,,0.00,,2013-02-26 06:41:00,
2013-02-26 00:51:00,7.0,5.0,-100.00,SSE,160,2.0,2.0,93,0.00,,,0.00,,2013-02-26 06:51:00,
2013-02-26 01:01:00,8.0,5.0,-100.00,South,175,2.0,4.0,92,0.00,,,0.00,,2013-02-26 07:01:00,
2013-02-26 01:11:00,8.0,7.0,-100.00,South,180,2.0,4.0,92,0.00,,,0.00,,2013-02-26 07:11:00,
2013-02-26 01:22:00,13.0,10.0,-100.00,SSW,200,2.0,5.0,93,0.00,,,0.00,,2013-02-26 07:22:00,
2013-02-26 01:32:00,13.0,10.0,-100.00,South,175,4.0,6.0,93,0.00,,,0.00,,2013-02-26 07:32:00,
2013-02-26 01:41:00,13.0,10.0,-100.00,SSE,165,2.0,4.0,93,0.00,,,0.00,,2013-02-26 07:41:00,
2013-02-26 01:51:00,13.0,10.0,-100.00,SSW,200,1.0,2.0,93,0.00,,,0.00,,2013-02-26 07:51:00,
2013-02-26 02:02:00,12.0,10.0,-100.00,South,190,2.0,3.0,93,0.00,,,0.00,,2013-02-26 08:02:00,
2013-02-26 02:11:00,11.0,10.0,-100.00,SSW,210,1.0,2.0,93,0.00,,,0.00,,2013-02-26 08:11:00,
2013-02-26 02:21:00,11.0,10.0,-100.00,SSW,210,1.0,2.0,93,0.00,,,0.00,,2013-02-26 08:21:00,
2013-02-26 02:31:00,11.0,10.0,-100.00,South,180,2.0,6.0,93,0.00,,,0.00,,2013-02-26 08:31:00,
2013-02-26 02:41:00,12.0,10.0,-100.00,South,185,1.0,3.0,93,0.00,,,0.00,,2013-02-26 08:41:00,
2013-02-26 02:52:00,12.0,10.0,-100.00,South,190,1.0,2.0,93,0.00,,,0.00,,2013-02-26 08:52:00,
2013-02-26 03:01:00,11.0,10.0,-100.00,SSW,200,1.0,2.0,93,0.00,,,0.00,,2013-02-26 09:01:00,
2013-02-26 03:11:00,11.0,9.0,-100.00,SW,225,1.0,2.0,93,0.00,,,0.00,,2013-02-26 09:11:00,
2013-02-26 03:21:00,11.0,9.0,-100.00,West,275,0.0,2.0,93,0.00,,,0.00,,2013-02-26 09:21:00,
2013-02-26 03:31:00,11.0,9.0,-100.00,NW,320,2.0,2.0,93,0.00,,,0.00,,2013-02-26 09:31:00,
2013-02-26 03:43:00,10.0,9.0,-100.00,SW,225,1.0,2.0,92,0.00,,,0.00,,2013-02-26 09:43:00,
2013-02-26 03:51:00,10.0,9.0,-100.00,SW,225,1.0,2.0,92,0.00,,,0.00,,2013-02-26 09:51:00,
2013-02-26 04:01:00,9.0,9.0,-100.00,WSW,250,0.0,1.0,92,0.00,,,0.00,,2013-02-26 10:01:00,
2013-02-26 04:11:00,9.0,7.0,-100.00,WSW,250,1.0,1.0,92,0.00,,,0.00,,2013-02-26 10:11:00,
2013-02-26 04:21:00,9.0,7.0,-100.00,SSW,205,2.0,3.0,92,0.00,,,0.00,,2013-02-26 10:21:00,
2013-02-26 04:31:00,8.0,7.0,-100.00,SSW,195,2.0,3.0,92,0.00,,,0.00,,2013-02-26 10:31:00,
2013-02-26 04:41:00,9.0,7.0,-100.00,SSW,205,2.0,2.0,92,0.00,,,0.00,,2013-02-26 10:41:00,
2013-02-26 04:52:00,9.0,7.0,-100.00,SSW,210,2.0,3.0,92,0.00,,,0.00,,2013-02-26 10:52:00,
2013-02-26 05:01:00,9.0,7.0,-100.00,West,270,1.0,2.0,92,0.00,,,0.00,,2013-02-26 11:01:00,
2013-02-26 05:11:00,9.0,7.0,-100.00,NNW,330,1.0,2.0,92,0.00,,,0.00,,2013-02-26 11:11:00,
2013-02-26 05:21:00,9.0,7.0,-100.00,NW,325,1.0,1.0,92,0.00,,,0.00,,2013-02-26 11:21:00,
2013-02-26 05:32:00,9.0,7.0,-100.00,WNW,300,0.0,1.0,92,0.00,,,0.00,,2013-02-26 11:32:00,
2013-02-26 05:41:00,9.0,7.0,-100.00,NNW,330,0.0,1.0,92,0.00,,,0.00,,2013-02-26 11:41:00,
2013-02-26 05:52:00,8.0,7.0,-100.00,NNW,340,1.0,1.0,92,0.00,,,0.00,,2013-02-26 11:52:00,
2013-02-26 06:01:00,8.0,7.0,-100.00,North,355,1.0,2.0,92,0.00,,,0.00,,2013-02-26 12:01:00,
2013-02-26 06:11:00,8.0,5.0,-100.00,NW,310,0.0,1.0,92,0.00,,,0.00,,2013-02-26 12:11:00,
2013-02-26 06:22:00,6.0,5.0,-100.00,South,175,0.0,1.0,91,0.00,,,0.00,,2013-02-26 12:22:00,
2013-02-26 06:32:00,7.0,5.0,-100.00,NE,55,0.0,1.0,91,0.00,,,0.00,,2013-02-26 12:32:00,
2013-02-26 06:42:00,7.0,5.0,-100.00,East,95,0.0,1.0,91,0.00,,,0.00,,2013-02-26 12:42:00,
2013-02-26 06:52:00,6.0,5.0,-100.00,East,100,1.0,1.0,91,0.00,,,0.00,,2013-02-26 12:52:00,
2013-02-26 07:01:00,6.0,3.0,-100.00,ESE,115,0.0,1.0,91,0.00,,,0.00,,2013-02-26 13:01:00,
2013-02-26 07:11:00,6.0,5.0,-100.00,NE,45,1.0,1.0,91,0.00,,,0.00,,2013-02-26 13:11:00,
2013-02-26 07:21:00,7.0,5.0,-100.00,NNE,25,0.0,1.0,91,0.00,,,0.00,,2013-02-26 13:21:00,
2013-02-26 07:32:00,7.0,5.0,-100.00,ENE,60,1.0,1.0,91,0.00,,,0.00,,2013-02-26 13:32:00,
2013-02-26 07:42:00,6.0,5.0,-100.00,ESE,115,1.0,1.0,91,0.00,,,0.00,,2013-02-26 13:42:00,
2013-02-26 07:51:00,7.0,5.0,-100.00,ESE,105,1.0,1.0,91,0.00,,,0.00,,2013-02-26 13:51:00,
2013-02-26 08:01:00,7.0,5.0,-100.00,East,95,1.0,1.0,91,0.00,,,0.00,,2013-02-26 14:01:00,
2013-02-26 08:11:00,7.0,5.0,-100.00,ENE,70,1.0,1.0,91,0.00,,,0.00,,2013-02-26 14:11:00,
2013-02-26 08:21:00,8.0,5.0,-100.00,NE,45,1.0,2.0,91,0.00,,,0.00,,2013-02-26 14:21:00,
2013-02-26 08:31:00,8.0,7.0,-100.00,NE,35,1.0,1.0,91,0.00,,,0.00,,2013-02-26 14:31:00,
2013-02-26 08:42:00,9.0,7.0,-100.00,North,0,0.0,1.0,91,0.00,,,0.00,,2013-02-26 14:42:00,
2013-02-26 08:52:00,10.0,9.0,-100.00,ESE,110,1.0,1.0,91,0.00,,,0.00,,2013-02-26 14:52:00,
2013-02-26 09:02:00,10.0,9.0,-100.00,ENE,75,1.0,2.0,91,0.00,,,0.00,,2013-02-26 15:02:00,
2013-02-26 09:11:00,11.0,9.0,-100.00,SE,125,1.0,2.0,91,0.00,,,0.00,,2013-02-26 15:11:00,
2013-02-26 09:21:00,14.0,12.0,-100.00,WNW,285,0.0,1.0,91,0.00,,,0.00,,2013-02-26 15:21:00,
2013-02-26 09:32:00,16.0,14.0,-100.00,NE,50,0.0,1.0,91,0.00,,,0.00,,2013-02-26 15:32:00,
2013-02-26 09:41:00,18.0,16.0,-100.00,East,100,1.0,1.0,92,0.00,,,0.00,,2013-02-26 15:41:00,
2013-02-26 09:51:00,19.0,18.0,-100.00,NE,50,0.0,0.0,92,0.00,,,0.00,,2013-02-26 15:51:00,
2013-02-26 10:01:00,20.0,18.0,-100.00,East,100,1.0,2.0,92,0.00,,,0.00,,2013-02-26 16:01:00,
2013-02-26 10:11:00,19.0,18.0,-100.00,North,0,1.0,1.0,92,0.00,,,0.00,,2013-02-26 16:11:00,
2013-02-26 10:22:00,18.0,16.0,-100.00,South,175,1.0,2.0,92,0.00,,,0.00,,2013-02-26 16:22:00,
2013-02-26 10:32:00,21.0,19.0,-100.00,SE,135,1.0,2.0,92,0.00,,,0.00,,2013-02-26 16:32:00,
2013-02-26 10:42:00,24.0,23.0,-100.00,SE,145,1.0,2.0,92,0.00,,,0.00,,2013-02-26 16:42:00,
2013-02-26 10:51:00,28.0,27.0,-100.00,ENE,60,0.0,1.0,93,0.00,,,0.00,,2013-02-26 16:51:00,
2013-02-26 11:01:00,30.0,28.0,-100.00,SSE,155,0.0,0.0,93,0.00,,,0.00,,2013-02-26 17:01:00,
2013-02-26 11:11:00,29.0,28.0,-100.00,SW,230,1.0,2.0,93,0.00,,,0.00,,2013-02-26 17:11:00,
2013-02-26 11:21:00,25.0,23.0,-100.00,SW,215,4.0,4.0,94,0.00,,,0.00,,2013-02-26 17:21:00,
2013-02-26 11:32:00,27.0,25.0,-100.00,SW,225,2.0,4.0,94,0.00,,,0.00,,2013-02-26 17:32:00,
2013-02-26 11:41:00,29.0,28.0,-100.00,SSW,205,1.0,2.0,94,0.00,,,0.00,,2013-02-26 17:41:00,
2013-02-26 11:52:00,32.0,30.0,-100.00,SW,225,2.0,3.0,93,0.00,,,0.00,,2013-02-26 17:52:00,
2013-02-26 12:01:00,32.0,30.0,-100.00,South,185,2.0,3.0,91,0.00,,,0.00,,2013-02-26 18:01:00,
2013-02-26 12:12:00,32.0,28.0,-100.00,SSW,210,2.0,3.0,86,0.00,,,0.00,,2013-02-26 18:12:00,
2013-02-26 12:21:00,34.0,27.0,-100.00,SW,215,2.0,3.0,76,0.00,,,0.00,,2013-02-26 18:21:00,
2013-02-26 12:32:00,36.0,27.0,-100.00,WSW,240,1.0,2.0,69,0.00,,,0.00,,2013-02-26 18:32:00,
2013-02-26 12:42:00,38.0,27.0,-100.00,South,175,1.0,1.0,61,0.00,,,0.00,,2013-02-26 18:42:00,
2013-02-26 12:52:00,40.0,23.0,-100.00,ESE,120,3.0,4.0,52,0.00,,,0.00,,2013-02-26 18:52:00,
2013-02-26 13:01:00,38.0,21.0,-100.00,SW,230,1.0,3.0,51,0.00,,,0.00,,2013-02-26 19:01:00,
2013-02-26 13:11:00,39.0,21.0,-100.00,South,180,1.0,2.0,49,0.00,,,0.00,,2013-02-26 19:11:00,
2013-02-26 13:22:00,41.0,21.0,-100.00,ESE,105,1.0,3.0,44,0.00,,,0.00,,2013-02-26 19:22:00,
2013-02-26 13:31:00,42.0,19.0,-100.00,SE,145,1.0,2.0,40,0.00,,,0.00,,2013-02-26 19:31:00,
2013-02-26 13:41:00,42.0,19.0,-100.00,SSW,195,1.0,3.0,40,0.00,,,0.00,,2013-02-26 19:41:00,
2013-02-26 13:51:00,42.0,19.0,-100.00,ESE,115,1.0,4.0,40,0.00,,,0.00,,2013-02-26 19:51:00,
2013-02-26 14:01:00,44.0,19.0,-100.00,SSW,200,0.0,2.0,38,0.00,,,0.00,,2013-02-26 20:01:00,
2013-02-26 14:11:00,40.0,18.0,-100.00,West,260,6.0,7.0,41,0.00,,,0.00,,2013-02-26 20:11:00,
2013-02-26 14:21:00,38.0,19.0,-100.00,SW,220,6.0,7.0,45,0.00,,,0.00,,2013-02-26 20:21:00,
2013-02-26 14:31:00,39.0,19.0,-100.00,WSW,255,4.0,7.0,46,0.00,,,0.00,,2013-02-26 20:31:00,
2013-02-26 14:41:00,41.0,19.0,-100.00,WSW,245,4.0,6.0,43,0.00,,,0.00,,2013-02-26 20:41:00,
2013-02-26 14:51:00,43.0,21.0,-100.00,East,100,1.0,2.0,40,0.00,,,0.00,,2013-02-26 20:51:00,
2013-02-26 15:01:00,41.0,18.0,-100.00,ENE,75,6.0,7.0,39,0.00,,,0.00,,2013-02-26 21:01:00,
2013-02-26 15:11:00,39.0,18.0,-100.00,ENE,75,9.0,11.0,40,0.00,,,0.00,,2013-02-26 21:11:00,
2013-02-26 15:21:00,39.0,18.0,-100.00,ENE,70,6.0,9.0,42,0.00,,,0.00,,2013-02-26 21:21:00,
2013-02-26 15:31:00,38.0,18.0,-100.00,ENE,70,6.0,9.0,42,0.00,,,0.00,,2013-02-26 21:31:00,
2013-02-26 15:41:00,39.0,18.0,-100.00,ENE,75,5.0,7.0,43,0.00,,,0.00,,2013-02-26 21:41:00,
2013-02-26 15:51:00,40.0,19.0,-100.00,ENE,75,4.0,7.0,41,0.00,,,0.00,,2013-02-26 21:51:00,
2013-02-26 16:01:00,40.0,18.0,-100.00,North,0,3.0,7.0,41,0.00,,,0.00,,2013-02-26 22:01:00,
2013-02-26 16:11:00,39.0,18.0,-100.00,ENE,60,4.0,9.0,41,0.00,,,0.00,,2013-02-26 22:11:00,
2013-02-26 16:21:00,39.0,18.0,-100.00,NE,45,4.0,7.0,41,0.00,,,0.00,,2013-02-26 22:21:00,
2013-02-26 16:32:00,38.0,18.0,-100.00,NNE,30,4.0,7.0,42,0.00,,,0.00,,2013-02-26 22:32:00,
2013-02-26 16:41:00,37.0,18.0,-100.00,NE,50,4.0,7.0,43,0.00,,,0.00,,2013-02-26 22:41:00,
2013-02-26 16:51:00,37.0,18.0,-100.00,NE,50,2.0,7.0,43,0.00,,,0.00,,2013-02-26 22:51:00,
2013-02-26 17:01:00,37.0,18.0,-100.00,NE,50,4.0,6.0,43,0.00,,,0.00,,2013-02-26 23:01:00,
2013-02-26 17:11:00,36.0,18.0,-100.00,NE,35,2.0,6.0,44,0.00,,,0.00,,2013-02-26 23:11:00,
2013-02-26 17:21:00,35.0,16.0,-100.00,North,0,3.0,7.0,46,0.00,,,0.00,,2013-02-26 23:21:00,
2013-02-26 17:31:00,35.0,16.0,-100.00,NNE,15,4.0,6.0,46,0.00,,,0.00,,2013-02-26 23:31:00,
2013-02-26 17:41:00,35.0,16.0,-100.00,North,0,2.0,4.0,47,0.00,,,0.00,,2013-02-26 23:41:00,
2013-02-26 17:52:00,34.0,16.0,-100.00,North,350,1.0,3.0,48,0.00,,,0.00,,2013-02-26 23:52:00,
2013-02-26 18:01:00,32.0,16.0,-100.00,North,0,2.0,4.0,50,0.00,,,0.00,,2013-02-27 00:01:00,
2013-02-26 18:11:00,32.0,16.0,-100.00,North,5,3.0,6.0,51,0.00,,,0.00,,2013-02-27 00:11:00,
2013-02-26 18:21:00,31.0,16.0,-100.00,North,0,2.0,6.0,53,0.00,,,0.00,,2013-02-27 00:21:00,
2013-02-26 18:31:00,31.0,16.0,-100.00,North,0,2.0,4.0,55,0.00,,,0.00,,2013-02-27 00:31:00,
2013-02-26 18:41:00,30.0,16.0,-100.00,NNW,340,2.0,6.0,57,0.00,,,0.00,,2013-02-27 00:41:00,
2013-02-26 18:51:00,30.0,18.0,-100.00,NNW,335,3.0,6.0,58,0.00,,,0.00,,2013-02-27 00:51:00,
2013-02-26 19:01:00,30.0,18.0,-100.00,North,355,4.0,6.0,58,0.00,,,0.00,,2013-02-27 01:01:00,
2013-02-26 19:11:00,30.0,18.0,-100.00,North,350,4.0,7.0,59,0.00,,,0.00,,2013-02-27 01:11:00,
2013-02-26 19:21:00,30.0,18.0,-100.00,North,355,6.0,8.0,58,0.00,,,0.00,,2013-02-27 01:21:00,
2013-02-26 19:31:00,30.0,18.0,-100.00,North,355,4.0,7.0,59,0.00,,,0.00,,2013-02-27 01:31:00,
2013-02-26 19:41:00,30.0,18.0,-100.00,North,0,4.0,7.0,59,0.00,,,0.00,,2013-02-27 01:41:00,
2013-02-26 19:51:00,30.0,18.0,-100.00,North,0,4.0,7.0,59,0.00,,,0.00,,2013-02-27 01:51:00,
2013-02-26 20:01:00,29.0,18.0,-100.00,North,10,4.0,6.0,60,0.00,,,0.00,,2013-02-27 02:01:00,
2013-02-26 20:14:00,30.0,18.0,-100.00,North,0,4.0,9.0,59,0.00,,,0.00,,2013-02-27 02:14:00,
2013-02-26 20:22:00,30.0,18.0,-100.00,North,350,6.0,10.0,58,0.00,,,0.00,,2013-02-27 02:22:00,
2013-02-26 20:32:00,31.0,18.0,-100.00,NNW,345,4.0,9.0,58,0.00,,,0.00,,2013-02-27 02:32:00,
2013-02-26 20:42:00,30.0,18.0,-100.00,North,0,4.0,11.0,57,0.00,,,0.00,,2013-02-27 02:42:00,
2013-02-26 20:52:00,30.0,18.0,-100.00,North,350,5.0,7.0,58,0.00,,,0.00,,2013-02-27 02:52:00,
2013-02-26 21:02:00,29.0,16.0,-100.00,North,0,3.0,7.0,59,0.00,,,0.00,,2013-02-27 03:02:00,
2013-02-26 21:11:00,29.0,16.0,-100.00,NNW,340,3.0,7.0,59,0.00,,,0.00,,2013-02-27 03:11:00,
2013-02-26 21:21:00,29.0,18.0,-100.00,NNW,345,4.0,7.0,60,0.00,,,0.00,,2013-02-27 03:21:00,
2013-02-26 21:32:00,29.0,18.0,-100.00,NNW,335,4.0,7.0,60,0.00,,,0.00,,2013-02-27 03:32:00,
2013-02-26 21:41:00,29.0,18.0,-100.00,North,350,2.0,7.0,59,0.00,,,0.00,,2013-02-27 03:41:00,
2013-02-26 21:51:00,29.0,18.0,-100.00,North,355,4.0,9.0,58,0.00,,,0.00,,2013-02-27 03:51:00,
2013-02-26 22:01:00,29.0,16.0,-100.00,NNW,335,4.0,8.0,58,0.00,,,0.00,,2013-02-27 04:01:00,
2013-02-26 22:11:00,29.0,16.0,-100.00,NNW,340,3.0,7.0,59,0.00,,,0.00,,2013-02-27 04:11:00,
2013-02-26 22:21:00,29.0,16.0,-100.00,North,355,4.0,7.0,59,0.00,,,0.00,,2013-02-27 04:21:00,
2013-02-26 22:32:00,29.0,16.0,-100.00,NNW,330,3.0,6.0,59,0.00,,,0.00,,2013-02-27 04:32:00,
2013-02-26 22:41:00,28.0,16.0,-100.00,North,0,3.0,6.0,60,0.00,,,0.00,,2013-02-27 04:41:00,
2013-02-26 22:51:00,28.0,16.0,-100.00,North,0,4.0,6.0,60,0.00,,,0.00,,2013-02-27 04:51:00,
2013-02-26 23:01:00,29.0,16.0,-100.00,North,355,4.0,9.0,60,0.00,,,0.00,,2013-02-27 05:01:00,
2013-02-26 23:11:00,29.0,16.0,-100.00,North,0,5.0,9.0,59,0.00,,,0.00,,2013-02-27 05:11:00,
2013-02-26 23:22:00,28.0,16.0,-100.00,North,0,5.0,8.0,59,0.00,,,0.00,,2013-02-27 05:22:00,
2013-02-26 23:32:00,29.0,16.0,-100.00,NNW,345,4.0,7.0,58,0.00,,,0.00,,2013-02-27 05:32:00,
2013-02-26 23:41:00,29.0,16.0,-100.00,NNW,335,5.0,9.0,58,0.00,,,0.00,,2013-02-27 05:41:00,
2013-02-26 23:52:00,28.0,16.0,-100.00,NNW,330,4.0,9.0,58,0.00,,,0.00,,2013-02-27 05:52:00,